User: anonymous   Login
Location: Newark
(46.2358°N, 112.1211°W)
Time: 13:06:03
(UTC+00:00)
Language:

NUDT-PHONESAT - Orbit

View from above orbital plane
View from above orbital plane
View from above satellite
View from above satellite

Ground track
Ground track

The orbit data is extracted from the following two-line orbital elements,

1 40900U 15049B   20189.14562527  .00001439  00000-0  61995-4 0  9995
2 40900  97.4298 199.9281 0010703 276.2952 148.9639 15.24177791266195
Epoch (UTC): 07 July 2020 03:29:42
Eccentricity: 0.0010703
inclination: 97.4298°
perigee height: 486 km
apogee height: 500 km
right ascension of ascending node: 199.9281°
argument of perigee: 276.2952°
revolutions per day: 15.24177791
mean anomaly at epoch: 148.9639°
orbit number at epoch: 26619

The dashed part of the orbit path shows where the satellite is in the earth's shadow,  

DLR